Stations météo

réclame
Mon MeteoGroup
Le Havre/Octeville, France (7046): Température de l'air & dewpoint: 12.01.2019 13:00:00 - 18.01.2019 13:00:00 (CET)Le Havre/Octeville, France (7046): Vitesse du vent & gusts: 12.01.2019 13:00:00 - 18.01.2019 13:00:00 (CET)Le Havre/Octeville, France (7046): Direction du vent: 12.01.2019 13:00:00 - 18.01.2019 13:00:00 (CET)Le Havre/Octeville, France (7046): reduced air pressure: 12.01.2019 13:00:00 - 18.01.2019 13:00:00 (CET)Le Havre/Octeville, France (7046): visibility: 12.01.2019 13:00:00 - 18.01.2019 13:00:00 (CET)Le Havre/Octeville, France (7046): Quantités de précipitations: 12.01.2019 13:00:00 - 18.01.2019 13:00:00 (CET)
Date & Time tt [°C] td [°C] ff [km/h] ff [knt] fx [km/h] fx [knt] dd ppp [hPa] vv [km] rr [mm]
18.01.2019 13:00:00 - - - - - - - - - -
18.01.2019 12:00:00 4,1 -2,8 16 9 26 14 S 1019,0 57 0,0
18.01.2019 11:00:00 3,8 -2,2 10 5 18 10 SSE 1019,5 31 0,0
18.01.2019 10:00:00 2,4 -2,1 8 4 14 8 SE 1019,5 20 0,0
18.01.2019 09:00:00 0,6 -2,5 6 3 11 6 SE 1019,6 25 0,0
18.01.2019 08:00:00 0,9 -2,3 7 4 10 5 SSE 1019,6 20 0,0
18.01.2019 07:00:00 0,9 -2,2 5 3 11 6 SE 1019,4 15 0,0
18.01.2019 06:00:00 1,3 -1,4 6 3 10 5 SSE 1019,6 23 0,0
18.01.2019 05:00:00 2,3 -0,5 6 3 10 6 SSE 1020,0 27 0,0
18.01.2019 04:00:00 2,4 -0,7 5 3 9 5 SSE 1020,2 26 0,0
18.01.2019 03:00:00 2,0 -1,1 6 3 8 5 S 1020,4 34 0,0
18.01.2019 02:00:00 0,3 -2,4 2 1 3 2 SE 1020,3 33 0,0
18.01.2019 01:00:00 0,5 -2,6 2 1 4 2 ESE 1020,3 32 0,0
18.01.2019 00:00:00 2,0 -2,5 4 2 6 3 ENE 1020,1 48 0,0
17.01.2019 23:00:00 1,7 -3,2 0 0 10 6 N 1020,0 51 0,0
17.01.2019 22:00:00 2,1 -3,2 7 4 21 12 NNE 1019,6 51 0,0
17.01.2019 21:00:00 3,9 -3,2 16 9 29 16 N 1019,1 60 0,0
17.01.2019 20:00:00 4,2 -3,1 18 10 30 16 NNW 1018,6 60 0,0
17.01.2019 19:00:00 4,1 -3,2 19 11 31 17 NNW 1017,9 60 0,0
17.01.2019 18:00:00 4,1 -3,0 22 12 35 19 NNW 1017,2 60 0,0
17.01.2019 17:00:00 4,5 -3,3 24 13 45 24 NNW 1016,3 50 0,0
17.01.2019 16:00:00 5,1 -2,5 29 16 42 23 NNW 1015,6 60 0,0
17.01.2019 15:00:00 5,4 -2,2 29 15 46 25 NNW 1014,5 51 0,0
17.01.2019 14:00:00 5,9 -0,2 37 20 54 29 NNW 1013,7 19 0,0
17.01.2019 13:00:00 6,3 2,2 34 19 50 27 NNW 1012,8 49 0,0
17.01.2019 12:00:00 6,4 2,1 32 17 50 27 NW 1012,2 18 0,0
17.01.2019 11:00:00 7,6 1,4 25 13 46 25 NW 1011,6 53 0,0
17.01.2019 10:00:00 6,8 2,1 31 17 57 31 NW 1010,7 50 0,0
17.01.2019 09:00:00 6,4 1,7 35 19 66 36 NW 1009,7 56 0,0
17.01.2019 08:00:00 6,5 2,8 40 21 69 37 NW 1008,1 56 0,0
17.01.2019 07:00:00 6,5 2,9 45 24 69 38 WNW 1006,7 50 0,2
17.01.2019 06:00:00 6,5 3,6 39 21 66 36 W 1005,7 11 0,6
17.01.2019 05:00:00 6,2 4,2 31 17 51 28 SW 1005,6 46 0,0
17.01.2019 04:00:00 6,3 4,1 34 18 60 33 SW 1005,8 53 0,0
17.01.2019 03:00:00 6,2 4,5 27 14 49 27 SW 1006,0 52 0,6
17.01.2019 02:00:00 6,7 5,0 20 11 34 19 SSW 1006,2 58 0,0
17.01.2019 01:00:00 6,9 4,7 22 12 36 20 SW 1006,7 19 0,0
17.01.2019 00:00:00 6,7 4,5 11 6 34 18 SW 1006,9 60 0,8
16.01.2019 23:00:00 7,2 5,3 13 7 28 15 W 1006,9 3,2 0,6
16.01.2019 22:00:00 7,8 4,7 18 10 37 20 W 1006,8 47 0,0
16.01.2019 21:00:00 7,4 6,8 23 12 41 22 WSW 1006,4 10 0,6
16.01.2019 20:00:00 6,6 5,4 24 13 45 25 SSW 1006,2 5 0,2
16.01.2019 19:00:00 6,9 4,9 27 15 47 26 SSW 1006,0 17 0,0
16.01.2019 18:00:00 6,7 5,0 28 15 49 26 SSW 1006,6 16 0,0
16.01.2019 17:00:00 7,2 4,3 24 13 40 22 SSW 1007,0 19 0,0
16.01.2019 16:00:00 7,5 4,1 23 12 36 19 SSW 1007,2 20 0,0
16.01.2019 15:00:00 7,1 3,7 19 11 38 20 SSW 1007,9 30 0,0
16.01.2019 14:00:00 6,8 2,9 23 12 39 21 SSW 1008,4 32 0,0
16.01.2019 13:00:00 6,4 2,5 26 14 41 22 S 1009,5 40 0,0
16.01.2019 12:00:00 5,9 1,8 23 13 38 20 S 1010,7 31 0,0
16.01.2019 11:00:00 5,7 2,0 21 11 40 22 S 1011,7 20 0,0
16.01.2019 10:00:00 5,2 1,7 23 12 34 19 S 1012,3 20 0,0
16.01.2019 09:00:00 5,4 1,5 22 12 39 21 SSW 1012,7 28 0,0
16.01.2019 08:00:00 5,4 1,3 22 12 38 21 SSW 1013,2 34 0,0
16.01.2019 07:00:00 5,6 1,7 21 11 36 20 SSW 1013,7 25 0,0
16.01.2019 06:00:00 5,6 2,1 19 10 33 18 SSW 1014,5 25 0,0
16.01.2019 05:00:00 5,7 2,0 23 12 36 19 SW 1015,3 19 0,0
16.01.2019 04:00:00 5,8 2,4 21 11 36 20 SW 1016,0 25 0,0
16.01.2019 03:00:00 5,9 2,2 24 13 41 22 SSW 1016,7 28 0,0
16.01.2019 02:00:00 6,1 2,9 23 13 36 19 SSW 1017,3 29 0,0
16.01.2019 01:00:00 6,2 3,0 19 10 41 22 SSW 1018,2 32 0,0
16.01.2019 00:00:00 6,5 3,3 24 13 39 21 SSW 1018,8 40 0,0
15.01.2019 23:00:00 6,7 3,7 21 12 32 17 SSW 1019,4 40 0,0
15.01.2019 22:00:00 6,9 3,9 16 9 29 16 SSW 1020,0 39 0,0
15.01.2019 21:00:00 7,0 4,5 13 7 27 15 SSW 1020,3 35 0,0
15.01.2019 20:00:00 7,0 5,0 17 9 29 16 SSW 1020,8 39 0,0
15.01.2019 19:00:00 7,2 5,3 18 10 27 15 SW 1021,1 39 0,0
15.01.2019 18:00:00 7,1 5,6 19 10 29 16 SW 1021,5 8 0,2
15.01.2019 17:00:00 7,0 6,3 15 8 28 15 SW 1021,9 4,6 0,2
15.01.2019 16:00:00 7,3 5,9 15 8 30 16 SW 1022,0 15 0,0
15.01.2019 15:00:00 7,7 5,3 20 11 29 16 WSW 1022,2 46 0,0
15.01.2019 14:00:00 8,0 4,8 20 11 31 17 WSW 1022,7 45 0,0
15.01.2019 13:00:00 8,0 4,2 19 11 29 16 WSW 1023,2 58 0,0
15.01.2019 12:00:00 7,9 4,1 19 11 29 16 SW 1023,8 50 0,0
15.01.2019 11:00:00 7,7 3,2 14 8 32 18 WSW 1024,3 60 0,0
15.01.2019 10:00:00 7,6 3,3 22 12 32 17 WSW 1024,4 57 0,0
15.01.2019 09:00:00 7,6 3,8 19 10 29 15 WSW 1024,2 58 0,0
15.01.2019 08:00:00 7,8 2,7 15 8 32 17 WSW 1024,0 60 0,0
15.01.2019 07:00:00 8,0 2,9 22 12 34 19 W 1024,0 60 0,0
15.01.2019 06:00:00 7,7 4,6 16 9 25 13 WSW 1024,3 57 0,0
15.01.2019 05:00:00 7,9 2,4 8 5 27 15 WNW 1024,6 60 0,0
15.01.2019 04:00:00 8,2 1,3 16 9 29 15 WNW 1024,9 60 0,0
15.01.2019 03:00:00 8,0 3,3 11 6 28 15 W 1025,1 55 0,0
15.01.2019 02:00:00 8,2 0,9 17 9 30 16 W 1024,9 60 0,0
15.01.2019 01:00:00 8,2 2,8 14 7 24 13 W 1024,9 60 0,0
15.01.2019 00:00:00 8,1 2,3 8 4 18 10 W 1024,9 60 0,0
14.01.2019 23:00:00 8,1 1,9 11 6 22 12 WNW 1024,9 60 0,0
14.01.2019 22:00:00 8,3 1,7 15 8 28 15 W 1024,8 60 0,0
14.01.2019 21:00:00 8,3 3,1 15 8 26 14 NW 1024,9 60 0,0
14.01.2019 20:00:00 8,2 3,2 11 6 28 15 NW 1024,8 52 0,0
14.01.2019 19:00:00 8,3 3,3 16 9 27 15 NW 1024,7 54 0,0
14.01.2019 18:00:00 8,2 3,8 14 8 23 13 NW 1024,2 48 0,0
14.01.2019 17:00:00 7,9 3,4 18 10 31 17 NNW 1023,9 49 0,0
14.01.2019 16:00:00 8,4 4,2 15 8 34 19 NNW 1023,5 20 0,0
14.01.2019 15:00:00 8,4 3,6 23 13 39 21 NNW 1023,0 20 0,0
14.01.2019 14:00:00 8,7 3,5 29 16 40 22 NNW 1023,0 56 0,0
14.01.2019 13:00:00 8,5 3,1 26 14 45 24 NNW 1022,8 47 0,0
14.01.2019 12:00:00 8,6 3,6 26 14 46 25 NNW 1022,6 48 0,0
14.01.2019 11:00:00 8,7 3,3 28 15 41 22 NNW 1022,3 42 0,0
14.01.2019 10:00:00 8,6 3,6 25 13 52 28 NNW 1021,5 39 0,0
14.01.2019 09:00:00 8,3 2,7 28 15 48 26 NNW 1021,1 43 0,0
14.01.2019 08:00:00 8,4 3,0 35 19 48 26 NNW 1020,2 41 0,0
14.01.2019 07:00:00 8,6 2,8 36 19 52 28 NNW 1019,6 40 0,0
14.01.2019 06:00:00 8,6 3,0 34 18 52 28 NNW 1019,0 35 0,0
14.01.2019 05:00:00 8,9 2,9 32 17 51 27 NW 1018,7 44 0,0
14.01.2019 04:00:00 8,9 3,3 29 15 54 29 NW 1018,4 42 0,0
14.01.2019 03:00:00 9,1 2,4 37 20 56 30 NW 1017,8 40 0,0
14.01.2019 02:00:00 9,8 5,0 37 20 56 30 NW 1017,2 20 0,0
14.01.2019 01:00:00 9,8 8,6 33 18 54 29 WNW 1016,9 11 0,0
14.01.2019 00:00:00 9,6 8,5 32 18 56 30 W 1016,8 11 0,0
13.01.2019 23:00:00 9,6 8,5 31 17 53 29 W 1016,3 11 0,0
13.01.2019 22:00:00 9,7 8,6 33 18 51 27 W 1016,1 11 0,0
13.01.2019 21:00:00 9,6 8,5 33 18 53 29 W 1016,3 9 0,0
13.01.2019 20:00:00 9,8 8,4 33 18 49 26 W 1016,6 8 0,0
13.01.2019 19:00:00 9,7 8,1 29 16 48 26 W 1016,5 12 0,0
13.01.2019 18:00:00 9,3 8,1 29 16 50 27 WSW 1016,0 11 0,0
13.01.2019 17:00:00 9,5 7,9 28 15 47 25 W 1016,7 14 0,0
13.01.2019 16:00:00 9,3 8,1 34 19 47 25 WSW 1016,4 12 0,0
13.01.2019 15:00:00 9,4 8,0 30 16 49 26 W 1017,1 13 0,0
13.01.2019 14:00:00 9,4 8,0 29 16 53 28 W 1017,9 11 0,0
13.01.2019 13:00:00 9,5 8,3 31 17 51 27 W 1018,6 13 0,0
13.01.2019 12:00:00 9,5 8,3 35 19 54 29 WSW 1019,2 11 0,0
13.01.2019 11:00:00 9,5 8,6 34 19 54 29 WSW 1019,4 10 0,0
13.01.2019 10:00:00 9,5 8,9 31 17 49 26 WSW 1019,6 8 0,0
13.01.2019 09:00:00 9,3 8,7 28 15 45 24 WSW 1019,8 9 0,0
13.01.2019 08:00:00 9,2 8,6 28 15 40 22 WSW 1019,8 9 0,0
13.01.2019 07:00:00 9,2 8,4 29 16 54 29 WSW 1020,2 10 0,0
13.01.2019 06:00:00 9,5 8,4 28 15 50 27 W 1020,8 15 0,0
13.01.2019 05:00:00 9,6 8,5 27 15 47 26 W 1021,2 12 0,0
13.01.2019 04:00:00 9,7 8,5 22 12 46 25 W 1021,8 12 0,0
13.01.2019 03:00:00 9,7 8,5 26 14 46 25 W 1022,0 13 0,0
13.01.2019 02:00:00 9,5 8,4 26 14 47 26 W 1022,2 12 0,0
13.01.2019 01:00:00 9,5 8,3 29 15 44 24 W 1022,8 13 0,0
13.01.2019 00:00:00 9,2 8,0 23 13 48 26 W 1023,0 12 0,2
12.01.2019 23:00:00 9,3 7,7 29 15 54 29 WNW 1023,5 17 0,0
12.01.2019 22:00:00 9,3 7,6 22 12 34 19 WNW 1023,2 17 0,0
12.01.2019 21:00:00 9,2 7,1 20 11 34 19 W 1023,3 18 0,0
12.01.2019 20:00:00 9,2 7,1 23 13 41 22 WNW 1023,9 16 0,0
12.01.2019 19:00:00 9,2 8,3 24 13 48 26 W 1023,5 14 0,0
12.01.2019 18:00:00 9,1 8,5 31 17 55 30 W 1023,6 14 0,0
12.01.2019 17:00:00 9,1 8,5 28 15 46 25 W 1024,1 14 0,0
12.01.2019 16:00:00 8,9 8,4 31 17 50 27 W 1024,4 10 0,0
12.01.2019 15:00:00 8,7 8,2 30 16 47 26 W 1024,7 6 0,0
12.01.2019 14:00:00 8,5 8,1 32 18 51 27 W 1025,5 1,0 0,0
12.01.2019 13:00:00 8,5 7,7 29 16 43 23 WSW 1026,4 10 0,0

tt = Température de l'air
td = dewpoint
ff = Vitesse du vent
fx = gusts
dd = Direction du vent
ppp = reduced air pressure
vv = visibility
rr = Quantités de précipitations

stations d'obs. à proximité